This is the latest recevied weather packets stored in our database for station/object E7HQ-1. If no packets are shown the sender has not sent any weather packets the latest 10 day(s).
| Time | Temp. | Humidity | Pressure | Rain* | Wind** | Luminosity | Snow |
|---|---|---|---|---|---|---|---|
| 1777471910 | 13.33° C | 54% | 1028.6 hPa | - | - | - | - |
| 1777471010 | 13.89° C | 53% | 1028.6 hPa | - | - | - | - |
| 1777469209 | 14.44° C | 51% | 1028.5 hPa | - | - | - | - |
| 1777468309 | 14.44° C | 51% | 1028.4 hPa | - | - | - | - |
| 1777467409 | 14.44° C | 51% | 1028.5 hPa | - | - | - | - |
| 1777465608 | 14.44° C | 49% | 1028.5 hPa | - | - | - | - |
| 1777464714 | 15.56° C | 48% | 1028.5 hPa | - | - | - | - |
| 1777462014 | 16.11° C | 46% | 1028.6 hPa | - | - | - | - |
| 1777461113 | 16.67° C | 46% | 1028.8 hPa | - | - | - | - |
| 1777460213 | 16.67° C | 49% | 1028.8 hPa | - | - | - | - |
| 1777458413 | 13.89° C | 50% | 1029.1 hPa | - | - | - | - |
| 1777457513 | 13.89° C | 50% | 1029.2 hPa | - | - | - | - |
| 1777456612 | 14.44° C | 47% | 1029.1 hPa | - | - | - | - |
| 1777454812 | 16.11° C | 45% | 1028.8 hPa | - | - | - | - |
| 1777453911 | 16.11° C | 44% | 1028.9 hPa | - | - | - | - |
| 1777453011 | 16.67° C | 44% | 1028.9 hPa | - | - | - | - |
| 1777451211 | 17.78° C | 39% | 1028.6 hPa | - | - | - | - |
| 1777450311 | 17.22° C | 43% | 1028.6 hPa | - | - | - | - |
| 1777449410 | 16.11° C | 41% | 1028.5 hPa | - | - | - | - |
| 1777447610 | 16.11° C | 42% | 1028.6 hPa | - | - | - | - |
| 1777446709 | 16.67° C | 44% | 1028.5 hPa | - | - | - | - |
| 1777445809 | 15.56° C | 44% | 1028.4 hPa | - | - | - | - |
| 1777444011 | 15° C | 46% | 1028.5 hPa | - | - | - | - |
| 1777443112 | 14.44° C | 46% | 1028.6 hPa | - | - | - | - |
| 1777442212 | 13.89° C | 47% | 1028.5 hPa | - | - | - | - |
* Rain since midnight (hover to see other rain measurements)
** Current wind speed in m/s (hover to see current wind gust speed)